Flag for Switzerland Weather past 2 weeks in Altdorf, Uri, Switzerland

Now
41 °F

Quite cool.


Feels Like: 38 °F
Forecast: 17 / 32 °F
Wind: 5 mph from East

Location: Altdorf

Current Time: Feb 27, 2015 at 6:20:13 PM

Latest Report: Feb 27, 2015 at 5:00 PM


Visibility: N/A

Pressure: 30.03 "Hg

Humidity: 80%

Dew point: 35 °F

Location of AltdorfLocation

Historic Weather in Altdorf — Graph

°F

Altdorf temperature yesterday

Maximum temperature yesterday: 44 °F (at 3:00 PM)
Minimum temperature yesterday: 27 °F (at 6:00 AM)
Average temperature yesterday: 34 °F

Past Weeks' High & Low Weather Summary

 TemperatureHumidityPressure
High52 °F (Feb 21, 12:00 PM)100% (Feb 13, 3:00 AM)30.70 "Hg (Feb 13, 3:00 AM)
Low24 °F (Feb 13, 12:00 AM)18% (Feb 20, 8:00 PM)29.47 "Hg (Feb 21, 12:00 PM)
Average36 °F78%30.07 "Hg
* Reported Feb 12 5:00 PM — Feb 27 5:00 PM, Altdorf, Weather by CustomWeather, © 2015

Note: Actual official high and low records may vary slightly from our data, if they occured in-between our weather recording intervals... More about our weather records

Advertising

Altdorf weather history for previous 24 hours

 ConditionsComfort  
Time TempWeatherWind HumidityBarometerVisibility
5:00 PM
Fri, Feb 27
41 °FQuite cool.5 mph80%30.03 "HgN/A
4:00 PM40 °FLight rain. Overcast.6 mph85%30.01 "Hg4 mi
3:00 PM39 °FChilly.3 mph88%29.99 "HgN/A
2:00 PM38 °FChilly.1 mph89%29.96 "HgN/A
1:00 PM37 °FRain. Low clouds.3 mph92%29.96 "Hg3 mi
12:00 PM38 °FChilly.3 mph91%29.93 "HgN/A
11:00 AM37 °FChilly.2 mph90%29.92 "HgN/A
10:00 AM37 °FOvercast.5 mph91%29.89 "Hg9 mi
9:00 AM37 °FChilly.5 mph89%29.88 "HgN/A
8:00 AM39 °FChilly.8 mph71%29.86 "HgN/A
7:00 AM37 °FOvercast.2 mph71%29.85 "Hg11 mi
6:00 AM36 °FChilly.2 mph71%29.86 "HgN/A
5:00 AM35 °FChilly.1 mph72%29.87 "HgN/A
3:00 AM35 °FChilly.2 mph63%29.93 "HgN/A
2:00 AM34 °FChilly.2 mph71%29.96 "HgN/A
1:00 AM35 °FOvercast.1 mph61%29.98 "Hg16 mi
12:00 AM33 °FChilly.2 mph63%30.00 "HgN/A
11:00 PM
Thu, Feb 26
32 °FChilly.No wind68%30.02 "HgN/A
10:00 PM31 °FClear.1 mph70%30.05 "Hg19 mi
9:00 PM32 °FChilly.1 mph66%30.07 "HgN/A
8:00 PM35 °FChilly.2 mph61%30.08 "HgN/A
7:00 PM36 °FClear.2 mph58%30.08 "Hg16 mi
6:00 PM38 °FChilly.5 mph51%30.07 "HgN/A
Weather by CustomWeather, © 2015

See weather overviewHow to use our weather pages